Harlan, KY

1:31 PM EST on November 21, 2019 (GMT -0500)
Harlan

Weather History for KI35 - September, 2019

Change the Weather History Date:

Saturday, September 7, 2019

  Actual Average (WUND) Record (WUND)
Temperature  
Mean Temperature 72 °F -  
Max Temperature 82 °F - - (-1)
Min Temperature 61 °F - - (-1)
Cooling Degree Days 7    
Growing Degree Days 22 (Base 50)    
Moisture  
Dew Point 61 °F    
Average Humidity 74    
Maximum Humidity 99    
Minimum Humidity 41    
Precipitation  
Precipitation 0.00 in - - ()
Sea Level Pressure  
Sea Level Pressure 30.02 in    
Wind  
Wind Speed 1 mph ()    
Max Wind Speed 9 mph    
Max Gust Speed -    
Visibility 9.7 miles    
Events      
Averages and records for this station are not official NWS values.
T = Trace of Precipitation, MM = Missing Value Source: Averaged Metar Reports

Daily Weather History Graph

Daily Weather History Graph

Search for Another Location

Airport or City:

Astronomy

Sep. 07, 2019 Rise Set
Actual Time 7:09 AM EDT 7:53 PM EDT
Civil Twilight 6:42 AM EDT 8:19 PM EDT
Nautical Twilight 6:11 AM EDT 8:50 PM EDT
Astronomical Twilight 5:39 AM EDT 9:22 PM EDT
Moon 4:01 PM EDT (9/7) 1:06 AM EDT (9/7)
Length of Visible Light 13h 36m
Length of Day
12h 44m
Waxing Gibbous, 65% of the Moon is Illuminated
Sep 7
Waxing Gibbous
Sep 14
Full
Sep 21
Last Quarter
Sep 28
New
Oct 5
First Quarter

Hourly Weather History & Observations

Time (EDT) Temp. Heat Index Dew Point Humidity Pressure Visibility Wind Dir Wind Speed Gust Speed Precip Events Conditions
12:15 AM 67.5 °F - 63.9 °F 88% 29.96 in 10.0 mi Calm Calm - N/A   Overcast
12:35 AM 67.1 °F - 63.9 °F 89% 29.96 in 10.0 mi Calm Calm - N/A   Overcast
12:55 AM 67.5 °F - 64.2 °F 89% 29.96 in 10.0 mi Calm Calm - N/A   Overcast
1:15 AM 67.1 °F - 64.4 °F 91% 29.96 in 10.0 mi Calm Calm - N/A   Overcast
1:35 AM 66.4 °F - 63.7 °F 91% 29.96 in 10.0 mi Calm Calm - N/A   Mostly Cloudy
1:55 AM 67.1 °F - 63.7 °F 89% 29.96 in 10.0 mi Calm Calm - N/A   Overcast
2:15 AM 65.8 °F - 63.7 °F 93% 29.96 in 10.0 mi Calm Calm - N/A   Mostly Cloudy
2:35 AM 65.7 °F - 63.7 °F 93% 29.97 in 10.0 mi Calm Calm - N/A   Scattered Clouds
2:55 AM 65.3 °F - 63.5 °F 94% 29.96 in 10.0 mi Calm Calm - N/A   Mostly Cloudy
3:15 AM 65.5 °F - 63.9 °F 94% 29.97 in 10.0 mi Calm Calm - N/A   Mostly Cloudy
3:35 AM 65.7 °F - 63.5 °F 93% 29.97 in 10.0 mi Calm Calm - N/A   Mostly Cloudy
3:55 AM 64.4 °F - 63.0 °F 95% 29.96 in 10.0 mi Calm Calm - N/A   Clear
4:15 AM 64.4 °F - 63.1 °F 96% 29.97 in 10.0 mi Calm Calm - N/A   Clear
4:35 AM 64.8 °F - 63.1 °F 94% 29.98 in 10.0 mi Calm Calm - N/A   Clear
4:55 AM 64.8 °F - 63.5 °F 96% 29.98 in 10.0 mi Calm Calm - N/A   Clear
5:35 AM 63.7 °F - 62.8 °F 97% 29.99 in 10.0 mi Calm Calm - N/A   Scattered Clouds
5:55 AM 63.3 °F - 62.8 °F 98% 29.99 in 10.0 mi Calm Calm - N/A   Clear
6:15 AM 62.8 °F - 62.6 °F 99% 30.00 in 1.5 mi Calm Calm - N/A   Mostly Cloudy
6:35 AM 63.1 °F - 62.6 °F 98% 30.01 in 10.0 mi Calm Calm - N/A   Scattered Clouds
6:55 AM 62.6 °F - 62.1 °F 98% 30.01 in 2.5 mi Calm Calm - N/A   Mostly Cloudy
7:15 AM 63.7 °F - 62.8 °F 97% 30.02 in 10.0 mi Calm Calm - N/A   Overcast
7:35 AM 62.6 °F - 62.1 °F 98% 30.02 in 7.0 mi Calm Calm - N/A   Mostly Cloudy
7:55 AM 63.5 °F - 62.6 °F 97% 30.03 in 10.0 mi Calm Calm - N/A   Overcast
8:15 AM 64.4 °F - 63.0 °F 95% 30.03 in 10.0 mi Calm Calm - N/A   Overcast
8:35 AM 65.7 °F - 63.3 °F 92% 30.04 in 10.0 mi Calm Calm - N/A   Mostly Cloudy
8:55 AM 67.1 °F - 63.5 °F 88% 30.04 in 10.0 mi Calm Calm - N/A   Scattered Clouds
9:15 AM 68.4 °F - 63.7 °F 85% 30.05 in 10.0 mi Calm Calm - N/A   Mostly Cloudy
9:35 AM 69.1 °F - 63.5 °F 82% 30.05 in 10.0 mi SSW 3.5 mph - N/A   Mostly Cloudy
9:55 AM 69.3 °F - 62.8 °F 80% 30.05 in 10.0 mi Calm Calm - N/A   Overcast
10:15 AM 70.2 °F - 63.1 °F 78% 30.05 in 10.0 mi Calm Calm - N/A   Overcast
10:35 AM 71.1 °F - 59.4 °F 66% 30.06 in 10.0 mi North 3.5 mph - N/A   Overcast
10:55 AM 74.7 °F - 59.7 °F 60% 30.06 in 10.0 mi North 4.6 mph - N/A   Mostly Cloudy
11:15 AM 73.2 °F - 60.1 °F 63% 30.06 in 10.0 mi NNE 4.6 mph - N/A   Mostly Cloudy
11:35 AM 72.5 °F - 59.7 °F 64% 30.06 in 10.0 mi Calm Calm - N/A   Scattered Clouds
11:55 AM 74.5 °F - 58.6 °F 58% 30.06 in 10.0 mi WNW 6.9 mph - N/A   Mostly Cloudy
12:15 PM 74.5 °F - 58.6 °F 58% 30.05 in 10.0 mi Calm Calm - N/A   Mostly Cloudy
12:35 PM 75.0 °F - 58.5 °F 56% 30.05 in 10.0 mi NNW 5.8 mph - N/A   Mostly Cloudy
12:55 PM 75.2 °F - 58.6 °F 56% 30.04 in 10.0 mi NW 3.5 mph - N/A   Mostly Cloudy
1:15 PM 76.8 °F - 57.7 °F 52% 30.04 in 10.0 mi SSW 3.5 mph - N/A   Scattered Clouds
1:35 PM 76.1 °F - 57.4 °F 52% 30.04 in 10.0 mi Calm Calm - N/A   Mostly Cloudy
1:55 PM 78.4 °F - 57.6 °F 49% 30.03 in 10.0 mi West 8.1 mph - N/A   Scattered Clouds
2:15 PM 79.0 °F - 58.1 °F 49% 30.03 in 10.0 mi WNW 3.5 mph - N/A   Scattered Clouds
2:35 PM 79.2 °F - 57.4 °F 47% 30.02 in 10.0 mi WNW 5.8 mph - N/A   Scattered Clouds
2:55 PM 80.8 °F 81.2 °F 58.8 °F 47% 30.01 in 10.0 mi NNE 3.5 mph - N/A   Scattered Clouds
3:15 PM 79.9 °F - 58.1 °F 47% 30.01 in 10.0 mi NNE 3.5 mph - N/A   Scattered Clouds
3:35 PM 81.0 °F 81.2 °F 58.5 °F 46% 30.00 in 10.0 mi SE 3.5 mph - N/A   Scattered Clouds
3:55 PM 81.5 °F 81.5 °F 57.6 °F 44% 30.00 in 10.0 mi WNW 3.5 mph - N/A   Scattered Clouds
4:15 PM 81.3 °F 81.3 °F 57.2 °F 44% 29.99 in 10.0 mi NNE 4.6 mph - N/A   Clear
4:35 PM 82.4 °F 81.9 °F 56.7 °F 41% 29.99 in 10.0 mi WNW 9.2 mph - N/A   Clear
4:55 PM 81.5 °F 81.3 °F 56.5 °F 42% 29.99 in 10.0 mi Calm Calm - N/A   Clear
5:15 PM 81.9 °F 81.7 °F 57.0 °F 43% 29.99 in 10.0 mi WNW 3.5 mph - N/A   Clear
5:35 PM 81.0 °F 80.9 °F 56.3 °F 43% 29.99 in 10.0 mi WNW 6.9 mph - N/A   Clear
5:55 PM 81.3 °F 81.2 °F 57.0 °F 43% 29.99 in 10.0 mi NW 4.6 mph - N/A   Clear
6:15 PM 80.6 °F 80.7 °F 56.7 °F 44% 30.00 in 10.0 mi WNW 4.6 mph - N/A   Clear
6:35 PM 79.9 °F - 57.0 °F 45% 30.00 in 10.0 mi NNW 3.5 mph - N/A   Clear
6:55 PM 79.0 °F - 57.9 °F 48% 30.00 in 10.0 mi WNW 4.6 mph - N/A   Clear
7:15 PM 78.1 °F - 58.3 °F 50% 30.01 in 10.0 mi NNW 3.5 mph - N/A   Clear
7:35 PM 76.6 °F - 58.6 °F 54% 30.01 in 10.0 mi Calm Calm - N/A   Clear
7:55 PM 73.0 °F - 59.2 °F 62% 30.02 in 10.0 mi NNW 3.5 mph - N/A   Clear
8:15 PM 72.1 °F - 59.5 °F 64% 30.03 in 10.0 mi Calm Calm - N/A   Clear
8:35 PM 69.8 °F - 60.6 °F 73% 30.03 in 10.0 mi Calm Calm - N/A   Clear
8:55 PM 69.1 °F - 60.1 °F 73% 30.04 in 10.0 mi Calm Calm - N/A   Clear
9:15 PM 67.3 °F - 60.3 °F 78% 30.04 in 10.0 mi Calm Calm - N/A   Clear
9:35 PM 65.5 °F - 61.0 °F 85% 30.05 in 10.0 mi Calm Calm - N/A   Clear
9:55 PM 64.4 °F - 61.2 °F 89% 30.06 in 10.0 mi Calm Calm - N/A   Clear
10:15 PM 63.7 °F - 61.2 °F 91% 30.06 in 10.0 mi Calm Calm - N/A   Clear
10:35 PM 63.5 °F - 61.3 °F 93% 30.06 in 10.0 mi Calm Calm - N/A   Clear
10:55 PM 63.0 °F - 61.0 °F 93% 30.06 in 10.0 mi Calm Calm - N/A   Clear
11:15 PM 62.1 °F - 60.8 °F 96% 30.06 in 10.0 mi Calm Calm - N/A   Clear
11:35 PM 62.8 °F - 60.8 °F 93% 30.07 in 10.0 mi Calm Calm - N/A   Clear
11:55 PM 61.7 °F - 60.8 °F 97% 30.07 in 10.0 mi Calm Calm - N/A   Clear